Central Brevoort - southern half: Past 24 Hour Conditions

 

Gjoa Haven Airport

06:00 AM MDT 18 April 2014
This table is a summary of hourly weather conditions for the past 24 hours.
Date / Time
(MDT)
Wind(knots) Conditions Visibility(km) Pressure(kPa) Air tempC) Relative humidity(%) Dew pointC) Wind Chill
18 April 2014
6:00 SW 19 Light Snow 3 101.4 -23 82 -25 -37
5:00 SSW 18 Sunny 16 101.5 -24 81 -26 -38
4:00 SSW 15 Light Snow 15 101.5 -24 81 -27 -38
3:00 SSW 14 Clear 16 101.7 -24 82 -26 -37
2:00 SSW 14 Clear 16 101.8 -24 82 -26 -37
1:00 SW 14 Clear 16 101.8 -24 82 -26 -37
0:00 SW 12 Clear 16 101.8 -24 82 -26 -36
17 April 2014
23:00 SW 11 Clear 13 101.9 -23 83 -26 -35
22:00 WSW 12 Clear 16 101.9 -22 85 -24 -33
21:00 WSW 11 Clear 16 101.9 -21 85 -23 -32
20:00 WSW 10 Sunny 16 102.0 -20 84 -22 -30
19:00 W 12 Sunny 16 102.0 -19 82 -21 -29
18:00 W 11 Sunny 24 101.9 -18 82 -20 -28
17:00 WNW 15 Sunny 24 101.9 -17 79 -20 -28
16:00 WNW 16 Sunny 24 101.9 -16 79 -19 -28
15:00 WNW 17 gust 23 Sunny 24 101.8 -17 80 -20 -29
14:00 WNW 16 Sunny 24 101.8 -17 79 -19 -28
13:00 NW 15 Ice Crystals 24 101.8 -17 81 -20 -28
12:00 WNW 10 Ice Crystals 24 101.7 -18 80 -21 -28
11:00 NW 14 Ice Crystals 24 101.7 -19 79 -22 -30
10:00 NW 14 Ice Crystals 24 101.7 -20 83 -22 -32
9:00 NW 15 Ice Crystals 24 101.6 -21 83 -24 -34
8:00 NNW 14 Ice Crystals 24 101.6 -23 82 -25 -36
7:00 NNW 8 Ice Crystals 24 101.6 -23 82 -26 -34
6:00 NNW 13 Sunny 16 101.5 -25 81 -27 -37
 
Map of Arctic - Eastern Arctic marine weather areas Baker Lake Airport Chesterfield Inlet Airport Coral Harbour Airport Gjoa Haven Airport Kugaaruk Airport Rankin Inlet Airport Shepherd Bay Airport Whale Cove Airport Arctic Bay Brevoort Island Qikiqtarjuaq Airport Cape Dorset Airport Cape Dyer Cape Hooper Clyde Airport Grise Fiord Airport Hall Beach Airport Igloolik Airport Iqaluit Airport Longstaff Bluff Pangnirtung Airport Pond Inlet Airport Repulse Bay Airport Resolute Airport Resolution Island Rowley Island Airport Taloyoak Airport Wager Bay Akulivik Airport Ivujivik Airport Puvirnituq Airport Kangiqsujuaq Airport Kangirsuk Airport Quaqtaq Airport Tasiujaq Airport Cape Kakkiviak Cape Kiglapait Nain Airport Saglek Cape Mercy Kimmirut Airport Aupaluk Airport Salluit Airport Kangiqsualujjuaq Airport Fort Ross
Legend: buoyBuoy land stationLand Station